User: anonymous   Login
Location: Bannatyne
(13.0833°N, 59.5333°W)
Time: 12:01:02
(UTC+00:00)
Language:

Altair - Orbit

View from above orbital plane
View from above orbital plane
View from above satellite
View from above satellite

Ground track
Ground track

The orbit data is extracted from the following two-line orbital elements,

1    50U 60009B   20019.58573010 -.00000108 +00000-0 -22708-3 0  9994
2    50 047.2285 226.4093 0113277 239.0710 119.8904 12.20108980651920
Epoch (UTC): 19 January 2020 14:03:27
Eccentricity: 0.0113277
inclination: 47.2285°
perigee height: 1502 km
apogee height: 1682 km
right ascension of ascending node: 226.4093°
argument of perigee: 239.0710°
revolutions per day: 12.20108980
mean anomaly at epoch: 119.8904°
orbit number at epoch: 65192

The dashed part of the orbit path shows where the satellite is in the earth's shadow,  

DLR